Location: Nelson
(41.2830°S, 173.2830°E)
Time: 15:06:08
(UTC+12:00)

COSMO-SKYMED 1 - Pass Details

Date: 14 May 2021
Orbit: 621 x 623 km, 97.9° (Epoch: 18 June)

Event Time Altitude Azimuth Distance (km) Brightness Sun altitude
Rises 17:58:27 0° 3° (N) 2,895 6.2 -7.7°
Reaches altitude 10° 18:00:40 10° 358° (N) 1,997 5.4 -8.1°
Maximum altitude 18:04:56 54° 280° (W) 773 3.5 -8.9°
Drops below altitude 10° 18:09:15 10° 202° (SSW) 2,026 5.3 -9.7°
Sets 18:11:31 0° 197° (SSW) 2,942 6.1 -10.1°
